| time (UTC) | temp C | wind direction | speed KPH | gust KPH | rain 1hr cm | rain 24hr cm | rain mn cm | humidity % | barometer mb |
| 20260906211631 | 33 | 125 | 6.4 | 17.7 | 0.00 | 0.00 | 0.00 | 32 | 1013.0 |
| 20260906211126 | 33 | 178 | 12.9 | 20.9 | 0.00 | 0.00 | 0.00 | 32 | 1013.1 |
| 20260906210622 | 33 | 111 | 9.7 | 24.1 | 0.00 | 0.00 | 0.00 | 32 | 1013.1 |
| 20260906210116 | 33 | 158 | 8.0 | 25.7 | 0.00 | 0.00 | 0.00 | 33 | 1013.1 |
| 20260906205612 | 33 | 189 | 9.7 | 24.1 | 0.00 | 0.00 | 0.00 | 33 | 1013.1 |
| 20260906205109 | 33 | 158 | 8.0 | 17.7 | 0.00 | 0.00 | 0.00 | 34 | 1013.3 |
| 20260906204607 | 33 | 152 | 6.4 | 20.9 | 0.00 | 0.00 | 0.00 | 34 | 1013.3 |
| 20260906204103 | 33 | 182 | 14.5 | 20.9 | 0.00 | 0.00 | 0.00 | 34 | 1013.3 |
| 20260906203602 | 33 | 170 | 19.3 | 30.6 | 0.00 | 0.00 | 0.00 | 33 | 1013.4 |
| 20260906203057 | 33 | 165 | 6.4 | 22.5 | 0.00 | 0.00 | 0.00 | 34 | 1013.6 |
| 20260906202554 | 33 | 151 | 8.0 | 22.5 | 0.00 | 0.00 | 0.00 | 34 | 1013.6 |
| 20260906202053 | 33 | 201 | 4.8 | 20.9 | 0.00 | 0.00 | 0.00 | 34 | 1013.3 |
| 20260906201548 | 32 | 161 | 22.5 | 25.7 | 0.00 | 0.00 | 0.00 | 34 | 1013.6 |
| 20260906201048 | 32 | 173 | 17.7 | 25.7 | 0.00 | 0.00 | 0.00 | 35 | 1013.3 |
| 20260906200544 | 32 | 173 | 24.1 | 27.4 | 0.00 | 0.00 | 0.00 | 34 | 1013.7 |
| 20260906200039 | 33 | 178 | 17.7 | 27.4 | 0.00 | 0.00 | 0.00 | 34 | 1013.9 |
| 20260906195534 | 33 | 114 | 4.8 | 16.1 | 0.00 | 0.00 | 0.00 | 35 | 1013.8 |
| 20260906195031 | 33 | 113 | 8.0 | 14.5 | 0.00 | 0.00 | 0.00 | 34 | 1013.6 |
| 20260906194526 | 33 | 160 | 17.7 | 22.5 | 0.00 | 0.00 | 0.00 | 35 | 1013.3 |
| 20260906194022 | 32 | 135 | 9.7 | 19.3 | 0.00 | 0.00 | 0.00 | 36 | 1013.6 |
| 20260906193522 | 32 | 107 | 14.5 | 25.7 | 0.00 | 0.00 | 0.00 | 36 | 1013.6 |
| 20260906193017 | 32 | 210 | 4.8 | 14.5 | 0.00 | 0.00 | 0.00 | 36 | 1013.6 |
| 20260906192513 | 32 | 112 | 8.0 | 33.8 | 0.00 | 0.00 | 0.00 | 35 | 1013.6 |
| 20260906192012 | 32 | 131 | 8.0 | 19.3 | 0.00 | 0.00 | 0.00 | 36 | 1013.7 |
| 20260906191507 | 32 | 178 | 14.5 | 25.7 | 0.00 | 0.00 | 0.00 | 35 | 1013.8 |
| 20260906191006 | 32 | 140 | 9.7 | 17.7 | 0.00 | 0.00 | 0.00 | 36 | 1013.9 |
| 20260906190505 | 32 | 166 | 17.7 | 19.3 | 0.00 | 0.00 | 0.00 | 35 | 1014.0 |
| 20260906190000 | 32 | 172 | 6.4 | 24.1 | 0.00 | 0.00 | 0.00 | 37 | 1013.9 |
| 20260906185459 | 32 | 149 | 12.9 | 25.7 | 0.00 | 0.00 | 0.00 | 35 | 1014.0 |
| 20260906184958 | 32 | 168 | 29.0 | 30.6 | 0.00 | 0.00 | 0.00 | 35 | 1014.0 |
| 20260906184453 | 32 | 124 | 8.0 | 17.7 | 0.00 | 0.00 | 0.00 | 36 | 1013.9 |
| 20260906183949 | 32 | 144 | 9.7 | 25.7 | 0.00 | 0.00 | 0.00 | 35 | 1014.2 |
| 20260906183445 | 32 | 116 | 12.9 | 29.0 | 0.00 | 0.00 | 0.00 | 35 | 1014.2 |
| 20260906182940 | 32 | 167 | 8.0 | 24.1 | 0.00 | 0.00 | 0.00 | 35 | 1014.3 |
| 20260906182436 | 32 | 108 | 8.0 | 22.5 | 0.00 | 0.00 | 0.00 | 35 | 1014.3 |
| 20260906181931 | 32 | 134 | 4.8 | 17.7 | 0.00 | 0.00 | 0.00 | 36 | 1014.1 |
| 20260906181427 | 32 | 145 | 9.7 | 30.6 | 0.00 | 0.00 | 0.00 | 36 | 1014.5 |
| 20260906180922 | 32 | 155 | 12.9 | 25.7 | 0.00 | 0.00 | 0.00 | 36 | 1014.7 |
| 20260906180417 | 32 | 159 | 9.7 | 29.0 | 0.00 | 0.00 | 0.00 | 35 | 1014.5 |
| 20260906175915 | 32 | 156 | 6.4 | 17.7 | 0.00 | 0.00 | 0.00 | 35 | 1014.7 |
| 20260906175410 | 32 | 180 | 9.7 | 20.9 | 0.00 | 0.00 | 0.00 | 35 | 1014.7 |
| 20260906174909 | 32 | 160 | 6.4 | 20.9 | 0.00 | 0.00 | 0.00 | 35 | 1014.7 |
| 20260906174408 | 32 | 155 | 11.3 | 27.4 | 0.00 | 0.00 | 0.00 | 35 | 1014.7 |
| 20260906173903 | 32 | 118 | 9.7 | 14.5 | 0.00 | 0.00 | 0.00 | 35 | 1014.8 |
| 20260906173359 | 32 | 159 | 16.1 | 25.7 | 0.00 | 0.00 | 0.00 | 34 | 1015.1 |
| 20260906172858 | 32 | 175 | 8.0 | 24.1 | 0.00 | 0.00 | 0.00 | 35 | 1015.1 |
| 20260906172354 | 31 | 119 | 9.7 | 20.9 | 0.00 | 0.00 | 0.00 | 34 | 1015.0 |
| 20260906171849 | 31 | 188 | 4.8 | 24.1 | 0.00 | 0.00 | 0.00 | 35 | 1015.0 |
| 20260906171344 | 31 | 215 | 6.4 | 30.6 | 0.00 | 0.00 | 0.00 | 36 | 1015.1 |
| 20260906170839 | 31 | 153 | 9.7 | 20.9 | 0.00 | 0.00 | 0.00 | 36 | 1015.1 |
| 20260906170335 | 32 | 148 | 11.3 | 24.1 | 0.00 | 0.00 | 0.00 | 35 | 1015.3 |
| 20260906165832 | 31 | 133 | 12.9 | 19.3 | 0.00 | 0.00 | 0.00 | 36 | 1015.2 |
| 20260906165330 | 31 | 138 | 8.0 | 25.7 | 0.00 | 0.00 | 0.00 | 36 | 1015.4 |
| 20260906164826 | 31 | 229 | 8.0 | 24.1 | 0.00 | 0.00 | 0.00 | 36 | 1015.2 |
| 20260906164325 | 31 | 186 | 6.4 | 12.9 | 0.00 | 0.00 | 0.00 | 36 | 1015.5 |
| 20260906163821 | 31 | 179 | 12.9 | 16.1 | 0.00 | 0.00 | 0.00 | 35 | 1015.4 |
| 20260906163317 | 31 | 196 | 8.0 | 20.9 | 0.00 | 0.00 | 0.00 | 35 | 1015.5 |
| 20260906162814 | 31 | 151 | 20.9 | 24.1 | 0.00 | 0.00 | 0.00 | 35 | 1015.6 |
| 20260906162314 | 31 | 138 | 17.7 | 19.3 | 0.00 | 0.00 | 0.00 | 36 | 1015.5 |
| 20260906161809 | 31 | 146 | 12.9 | 14.5 | 0.00 | 0.00 | 0.00 | 36 | 1015.6 |
| 20260906161308 | 31 | 174 | 9.7 | 27.4 | 0.00 | 0.00 | 0.00 | 35 | 1015.3 |
| 20260906160807 | 30 | 178 | 8.0 | 19.3 | 0.00 | 0.00 | 0.00 | 37 | 1015.6 |
| 20260906160302 | 30 | 163 | 9.7 | 17.7 | 0.00 | 0.00 | 0.00 | 37 | 1015.4 |
| 20260906155759 | 30 | 235 | 8.0 | 20.9 | 0.00 | 0.00 | 0.00 | 37 | 1015.5 |
| 20260906155254 | 30 | 143 | 16.1 | 24.1 | 0.00 | 0.00 | 0.00 | 37 | 1015.4 |
| 20260906154749 | 30 | 150 | 17.7 | 22.5 | 0.00 | 0.00 | 0.00 | 38 | 1015.3 |
| 20260906154244 | 30 | 193 | 3.2 | 17.7 | 0.00 | 0.00 | 0.00 | 38 | 1015.4 |
| 20260906153743 | 29 | 289 | 9.7 | 27.4 | 0.00 | 0.00 | 0.00 | 38 | 1015.9 |
| 20260906153237 | 29 | 182 | 11.3 | 17.7 | 0.00 | 0.00 | 0.00 | 38 | 1015.3 |
| 20260906152733 | 29 | 169 | 20.9 | 22.5 | 0.00 | 0.00 | 0.00 | 39 | 1015.4 |
| 20260906152227 | 28 | 201 | 4.8 | 24.1 | 0.00 | 0.00 | 0.00 | 40 | 1015.5 |
| 20260906151727 | 28 | 173 | 4.8 | 27.4 | 0.00 | 0.00 | 0.00 | 41 | 1015.6 |
| 20260906151222 | 28 | 153 | 12.9 | 25.7 | 0.00 | 0.00 | 0.00 | 41 | 1015.4 |
| 20260906150718 | 28 | 173 | 12.9 | 22.5 | 0.00 | 0.00 | 0.00 | 41 | 1015.6 |
| 20260906150213 | 28 | 212 | 8.0 | 22.5 | 0.00 | 0.00 | 0.00 | 41 | 1015.6 |
| 20260906145712 | 28 | 223 | 6.4 | 20.9 | 0.00 | 0.00 | 0.00 | 43 | 1015.9 |
| 20260906145212 | 28 | 160 | 8.0 | 11.3 | 0.00 | 0.00 | 0.00 | 44 | 1015.9 |
| 20260906144711 | 27 | 160 | 9.7 | 38.6 | 0.00 | 0.00 | 0.00 | 43 | 1016.1 |
| 20260906144201 | 28 | 176 | 14.5 | 22.5 | 0.00 | 0.00 | 0.00 | 42 | 1016.3 |
| 20260906143701 | 27 | 208 | 4.8 | 9.7 | 0.00 | 0.00 | 0.00 | 44 | 1016.2 |
| 20260906143158 | 27 | 158 | 8.0 | 12.9 | 0.00 | 0.00 | 0.00 | 45 | 1016.1 |
| 20260906142657 | 27 | 206 | 8.0 | 12.9 | 0.00 | 0.00 | 0.00 | 46 | 1016.1 |
| 20260906142153 | 27 | 117 | 4.8 | 9.7 | 0.00 | 0.00 | 0.00 | 48 | 1016.0 |
| 20260906141651 | 26 | 197 | 3.2 | 9.7 | 0.00 | 0.00 | 0.00 | 48 | 1016.1 |
| 20260906141147 | 26 | 186 | 14.5 | 16.1 | 0.00 | 0.00 | 0.00 | 48 | 1016.1 |
| 20260906140646 | 26 | 185 | 4.8 | 12.9 | 0.00 | 0.00 | 0.00 | 49 | 1016.2 |
| 20260906140141 | 26 | 145 | 3.2 | 9.7 | 0.00 | 0.00 | 0.00 | 51 | 1016.1 |
| 20260906135638 | 25 | 220 | 4.8 | 9.7 | 0.00 | 0.00 | 0.00 | 52 | 1016.0 |
| 20260906135134 | 25 | 188 | 3.2 | 11.3 | 0.00 | 0.00 | 0.00 | 54 | 1016.1 |
| 20260906134629 | 23 | 180 | 6.4 | 9.7 | 0.00 | 0.00 | 0.00 | 58 | 1016.0 |
| 20260906134124 | 23 | 86 | 0.0 | 6.4 | 0.00 | 0.00 | 0.00 | 66 | 1016.1 |
| 20260906133620 | 22 | 118 | 3.2 | 4.8 | 0.00 | 0.00 | 0.00 | 67 | 1015.9 |
| 20260906133115 | 21 | 318 | 0.0 | 3.2 | 0.00 | 0.00 | 0.00 | 70 | 1016.0 |
| 20260906132610 | 21 | 119 | 0.0 | 0.0 | 0.00 | 0.00 | 0.00 | 72 | 1015.9 |
| 20260906132106 | 19 | 98 | 0.0 | 6.4 | 0.00 | 0.00 | 0.00 | 77 | 1015.8 |
| 20260906131601 | 18 | 309 | 0.0 | 3.2 | 0.00 | 0.00 | 0.00 | 81 | 1016.0 |
| 20260906131056 | 17 | 35 | 0.0 | 0.0 | 0.00 | 0.00 | 0.00 | 84 | 1016.1 |
| 20260906130555 | 17 | 318 | 3.2 | 4.8 | 0.00 | 0.00 | 0.00 | 85 | 1016.0 |
| 20260906130051 | 16 | 23 | 0.0 | 4.8 | 0.00 | 0.00 | 0.00 | 86 | 1016.2 |
| 20260906125543 | 16 | 50 | 0.0 | 4.8 | 0.00 | 0.00 | 0.00 | 88 | 1015.8 |
| 20260906125043 | 16 | 74 | 4.8 | 4.8 | 0.00 | 0.00 | 0.00 | 89 | 1015.9 |
| 20260906124538 | 16 | 142 | 0.0 | 0.0 | 0.00 | 0.00 | 0.00 | 89 | 1015.9 |
| 20260906124033 | 16 | 1 | 3.2 | 3.2 | 0.00 | 0.00 | 0.00 | 89 | 1015.8 |
| 20260906123532 | 16 | 80 | 0.0 | 3.2 | 0.00 | 0.00 | 0.00 | 88 | 1015.8 |
| 20260906123027 | 16 | 147 | 0.0 | 3.2 | 0.00 | 0.00 | 0.00 | 87 | 1015.8 |
| 20260906122521 | 16 | 144 | 4.8 | 4.8 | 0.00 | 0.00 | 0.00 | 86 | 1015.6 |
| 20260906122018 | 16 | 279 | 3.2 | 4.8 | 0.00 | 0.00 | 0.00 | 86 | 1015.5 |
| 20260906121513 | 16 | 134 | 3.2 | 4.8 | 0.00 | 0.00 | 0.00 | 85 | 1015.8 |
| 20260906121009 | 16 | 304 | 0.0 | 3.2 | 0.00 | 0.00 | 0.00 | 85 | 1015.9 |
| 20260906120504 | 16 | 260 | 3.2 | 4.8 | 0.00 | 0.00 | 0.00 | 84 | 1015.5 |
| 20260906120001 | 17 | 89 | 0.0 | 3.2 | 0.00 | 0.00 | 0.00 | 83 | 1015.6 |
| 20260906115456 | 17 | 269 | 0.0 | 3.2 | 0.00 | 0.00 | 0.00 | 81 | 1015.4 |
| 20260906114956 | 17 | 197 | 0.0 | 3.2 | 0.00 | 0.00 | 0.00 | 81 | 1015.6 |
| 20260906114450 | 17 | 293 | 0.0 | 6.4 | 0.00 | 0.00 | 0.00 | 81 | 1015.3 |
| 20260906113947 | 17 | 269 | 0.0 | 0.0 | 0.00 | 0.00 | 0.00 | 82 | 1015.4 |
| 20260906113445 | 17 | 66 | 0.0 | 3.2 | 0.00 | 0.00 | 0.00 | 81 | 1015.4 |
| 20260906112941 | 18 | 134 | 0.0 | 3.2 | 0.00 | 0.00 | 0.00 | 78 | 1015.3 |
| 20260906112436 | 18 | 196 | 0.0 | 3.2 | 0.00 | 0.00 | 0.00 | 77 | 1015.3 |
| 20260906111932 | 19 | 134 | 0.0 | 6.4 | 0.00 | 0.00 | 0.00 | 75 | 1015.3 |
| 20260906111431 | 19 | 48 | 8.0 | 8.0 | 0.00 | 0.00 | 0.00 | 73 | 1015.6 |
| 20260906110926 | 20 | 119 | 0.0 | 3.2 | 0.00 | 0.00 | 0.00 | 70 | 1015.0 |
| 20260906110422 | 20 | 326 | 0.0 | 3.2 | 0.00 | 0.00 | 0.00 | 70 | 1015.3 |
| 20260906105920 | 20 | 228 | 0.0 | 4.8 | 0.00 | 0.00 | 0.00 | 69 | 1015.4 |
| 20260906105416 | 20 | 89 | 0.0 | 3.2 | 0.00 | 0.00 | 0.00 | 69 | 1015.2 |
| 20260906104912 | 20 | 135 | 0.0 | 4.8 | 0.00 | 0.00 | 0.00 | 69 | 1015.2 |
| 20260906104410 | 20 | 192 | 3.2 | 11.3 | 0.00 | 0.00 | 0.00 | 69 | 1015.2 |
| 20260906103910 | 20 | 146 | 3.2 | 8.0 | 0.00 | 0.00 | 0.00 | 69 | 1015.1 |
| 20260906103408 | 20 | 174 | 4.8 | 9.7 | 0.00 | 0.00 | 0.00 | 69 | 1015.6 |
| 20260906102904 | 20 | 113 | 3.2 | 4.8 | 0.00 | 0.00 | 0.00 | 68 | 1015.6 |
| 20260906102403 | 20 | 224 | 0.0 | 8.0 | 0.00 | 0.00 | 0.00 | 68 | 1015.5 |
| 20260906101858 | 20 | 157 | 0.0 | 3.2 | 0.00 | 0.00 | 0.00 | 69 | 1015.5 |
| 20260906101353 | 21 | 137 | 3.2 | 8.0 | 0.00 | 0.00 | 0.00 | 68 | 1015.5 |
| 20260906100849 | 21 | 173 | 0.0 | 4.8 | 0.00 | 0.00 | 0.00 | 68 | 1015.5 |
| 20260906100348 | 20 | 200 | 6.4 | 6.4 | 0.00 | 0.00 | 0.00 | 68 | 1015.3 |
| 20260906095843 | 20 | 164 | 3.2 | 4.8 | 0.00 | 0.00 | 0.00 | 68 | 1015.4 |
| 20260906095339 | 21 | 102 | 0.0 | 4.8 | 0.00 | 0.00 | 0.00 | 67 | 1015.4 |
| 20260906094838 | 21 | 108 | 0.0 | 3.2 | 0.00 | 0.00 | 0.00 | 67 | 1015.2 |
| 20260906094333 | 21 | 129 | 0.0 | 0.0 | 0.00 | 0.00 | 0.00 | 65 | 1015.3 |
| 20260906093829 | 22 | 129 | 0.0 | 0.0 | 0.00 | 0.00 | 0.00 | 63 | 1015.6 |
| 20260906093325 | 23 | 117 | 0.0 | 4.8 | 0.00 | 0.00 | 0.00 | 61 | 1015.4 |
| 20260906092820 | 23 | 124 | 3.2 | 4.8 | 0.00 | 0.00 | 0.00 | 59 | 1015.0 |
| 20260906092320 | 24 | 171 | 3.2 | 6.4 | 0.00 | 0.00 | 0.00 | 57 | 1015.2 |
| 20260906091815 | 23 | 172 | 4.8 | 8.0 | 0.00 | 0.00 | 0.00 | 58 | 1015.1 |
| 20260906091312 | 23 | 217 | 0.0 | 9.7 | 0.00 | 0.00 | 0.00 | 59 | 1014.9 |
| 20260906090808 | 23 | 257 | 0.0 | 8.0 | 0.00 | 0.00 | 0.00 | 61 | 1015.0 |
| 20260906090307 | 22 | 174 | 3.2 | 3.2 | 0.00 | 0.00 | 0.00 | 63 | 1015.1 |
| 20260906085807 | 22 | 164 | 0.0 | 6.4 | 0.00 | 0.00 | 0.00 | 62 | 1015.0 |
| 20260906085307 | 23 | 62 | 3.2 | 3.2 | 0.00 | 0.00 | 0.00 | 62 | 1014.9 |
| 20260906084800 | 22 | 180 | 4.8 | 6.4 | 0.00 | 0.00 | 0.00 | 63 | 1014.9 |
| 20260906084300 | 22 | 61 | 0.0 | 3.2 | 0.00 | 0.00 | 0.00 | 64 | 1014.9 |
| 20260906083755 | 22 | 196 | 0.0 | 3.2 | 0.00 | 0.00 | 0.00 | 64 | 1014.9 |
| 20260906083251 | 22 | 60 | 0.0 | 3.2 | 0.00 | 0.00 | 0.00 | 64 | 1015.0 |
| 20260906082745 | 22 | 184 | 3.2 | 8.0 | 0.00 | 0.00 | 0.00 | 63 | 1015.1 |
| 20260906082240 | 22 | 215 | 0.0 | 9.7 | 0.00 | 0.00 | 0.00 | 66 | 1015.0 |
| 20260906081737 | 21 | 207 | 0.0 | 6.4 | 0.00 | 0.00 | 0.00 | 70 | 1015.1 |
| 20260906081231 | 20 | 55 | 0.0 | 6.4 | 0.00 | 0.00 | 0.00 | 76 | 1014.8 |
| 20260906080727 | 19 | 44 | 0.0 | 3.2 | 0.00 | 0.00 | 0.00 | 78 | 1015.0 |
| 20260906080224 | 19 | 105 | 3.2 | 4.8 | 0.00 | 0.00 | 0.00 | 79 | 1015.2 |
| 20260906075717 | 18 | 123 | 0.0 | 3.2 | 0.00 | 0.00 | 0.00 | 79 | 1015.3 |
| 20260906075212 | 19 | 30 | 0.0 | 0.0 | 0.00 | 0.00 | 0.00 | 79 | 1015.3 |
| 20260906074707 | 19 | 230 | 0.0 | 0.0 | 0.00 | 0.00 | 0.00 | 78 | 1015.4 |
| 20260906074207 | 19 | 163 | 0.0 | 3.2 | 0.00 | 0.00 | 0.00 | 78 | 1015.6 |
| 20260906073702 | 18 | 230 | 0.0 | 3.2 | 0.00 | 0.00 | 0.00 | 79 | 1015.9 |
| 20260906073157 | 18 | 239 | 0.0 | 3.2 | 0.00 | 0.00 | 0.00 | 80 | 1015.9 |
| 20260906072652 | 18 | 129 | 0.0 | 3.2 | 0.00 | 0.00 | 0.00 | 80 | 1015.8 |
| 20260906072148 | 18 | 247 | 3.2 | 4.8 | 0.00 | 0.00 | 0.00 | 81 | 1015.8 |
| 20260906071644 | 18 | 60 | 0.0 | 0.0 | 0.00 | 0.00 | 0.00 | 81 | 1015.8 |
| 20260906071143 | 18 | 106 | 3.2 | 3.2 | 0.00 | 0.00 | 0.00 | 81 | 1015.6 |
| 20260906070640 | 18 | 129 | 0.0 | 0.0 | 0.00 | 0.00 | 0.00 | 80 | 1015.6 |
| 20260906070136 | 18 | 142 | 0.0 | 0.0 | 0.00 | 0.00 | 0.00 | 79 | 1015.5 |
| 20260906065635 | 18 | 130 | 0.0 | 0.0 | 0.00 | 0.00 | 0.00 | 79 | 1015.8 |
| 20260906065131 | 18 | 102 | 0.0 | 3.2 | 0.00 | 0.00 | 0.00 | 80 | 1015.5 |
| 20260906064626 | 18 | 129 | 0.0 | 0.0 | 0.00 | 0.00 | 0.00 | 81 | 1015.8 |
| 20260906064121 | 18 | 147 | 0.0 | 0.0 | 0.00 | 0.00 | 0.00 | 80 | 1015.4 |
| 20260906063616 | 18 | 135 | 0.0 | 0.0 | 0.00 | 0.00 | 0.00 | 80 | 1015.4 |
| 20260906063112 | 18 | 143 | 0.0 | 3.2 | 0.00 | 0.00 | 0.00 | 79 | 1015.4 |
| 20260906062608 | 18 | 119 | 0.0 | 0.0 | 0.00 | 0.00 | 0.00 | 80 | 1015.3 |
| 20260906062106 | 18 | 119 | 0.0 | 0.0 | 0.00 | 0.00 | 0.00 | 79 | 1015.4 |
| 20260906061603 | 19 | 135 | 0.0 | 0.0 | 0.00 | 0.00 | 0.00 | 77 | 1015.1 |
| 20260906061102 | 19 | 129 | 0.0 | 0.0 | 0.00 | 0.00 | 0.00 | 75 | 1015.1 |
| 20260906060559 | 20 | 142 | 0.0 | 0.0 | 0.00 | 0.00 | 0.00 | 75 | 1014.9 |
| 20260906060056 | 20 | 50 | 0.0 | 0.0 | 0.00 | 0.00 | 0.00 | 74 | 1015.1 |
| 20260906055551 | 20 | 6 | 0.0 | 0.0 | 0.00 | 0.00 | 0.00 | 73 | 1015.1 |
| 20260906055046 | 20 | 44 | 0.0 | 0.0 | 0.00 | 0.00 | 0.00 | 73 | 1015.2 |
| 20260906054541 | 20 | 50 | 0.0 | 3.2 | 0.00 | 0.00 | 0.00 | 71 | 1015.2 |
| 20260906054036 | 20 | 6 | 0.0 | 3.2 | 0.00 | 0.00 | 0.00 | 72 | 1015.2 |
| 20260906053533 | 19 | 315 | 0.0 | 0.0 | 0.00 | 0.00 | 0.00 | 74 | 1015.3 |
| 20260906053028 | 19 | 147 | 0.0 | 0.0 | 0.00 | 0.00 | 0.00 | 75 | 1015.5 |
| 20260906052524 | 19 | 135 | 0.0 | 0.0 | 0.00 | 0.00 | 0.00 | 75 | 1015.8 |
| 20260906052021 | 19 | 135 | 0.0 | 0.0 | 0.00 | 0.00 | 0.00 | 75 | 1016.0 |
| 20260906051516 | 19 | 135 | 0.0 | 0.0 | 0.00 | 0.00 | 0.00 | 75 | 1016.0 |
| 20260906051011 | 19 | 50 | 0.0 | 3.2 | 0.00 | 0.00 | 0.00 | 74 | 1015.8 |
| 20260906050506 | 19 | 209 | 0.0 | 0.0 | 0.00 | 0.00 | 0.00 | 73 | 1015.8 |
| 20260906050000 | 19 | 103 | 0.0 | 0.0 | 0.00 | 0.00 | 0.00 | 73 | 1015.8 |
| 20260906045458 | 20 | 235 | 0.0 | 0.0 | 0.00 | 0.00 | 0.00 | 73 | 1015.6 |
| 20260906044955 | 20 | 269 | 0.0 | 3.2 | 0.00 | 0.00 | 0.00 | 73 | 1015.8 |
| 20260906044449 | 19 | 6 | 0.0 | 0.0 | 0.00 | 0.00 | 0.00 | 73 | 1015.9 |
| 20260906043946 | 20 | 135 | 0.0 | 3.2 | 0.00 | 0.00 | 0.00 | 72 | 1015.9 |
| 20260906043441 | 20 | 13 | 0.0 | 0.0 | 0.00 | 0.00 | 0.00 | 72 | 1015.6 |
| 20260906042937 | 20 | 309 | 0.0 | 0.0 | 0.00 | 0.00 | 0.00 | 72 | 1015.6 |
| 20260906042436 | 20 | 145 | 0.0 | 3.2 | 0.00 | 0.00 | 0.00 | 70 | 1015.9 |
| 20260906041931 | 20 | 130 | 0.0 | 3.2 | 0.00 | 0.00 | 0.00 | 68 | 1015.4 |
| 20260906041427 | 21 | 244 | 0.0 | 0.0 | 0.00 | 0.00 | 0.00 | 68 | 1015.1 |
| 20260906040926 | 21 | 246 | 0.0 | 3.2 | 0.00 | 0.00 | 0.00 | 68 | 1015.4 |
| 20260906040422 | 20 | 224 | 0.0 | 0.0 | 0.00 | 0.00 | 0.00 | 67 | 1015.4 |
| 20260906035917 | 20 | 347 | 0.0 | 3.2 | 0.00 | 0.00 | 0.00 | 67 | 1015.3 |
| 20260906035412 | 21 | 142 | 0.0 | 0.0 | 0.00 | 0.00 | 0.00 | 66 | 1015.6 |
| 20260906034908 | 21 | 142 | 0.0 | 0.0 | 0.00 | 0.00 | 0.00 | 65 | 1015.5 |
| 20260906034402 | 21 | 89 | 0.0 | 0.0 | 0.00 | 0.00 | 0.00 | 64 | 1015.3 |
| 20260906033858 | 21 | 319 | 3.2 | 3.2 | 0.00 | 0.00 | 0.00 | 64 | 1015.6 |
| 20260906033357 | 21 | 322 | 0.0 | 0.0 | 0.00 | 0.00 | 0.00 | 64 | 1015.2 |
| 20260906032853 | 21 | 322 | 0.0 | 0.0 | 0.00 | 0.00 | 0.00 | 64 | 1015.4 |
| 20260906032349 | 21 | 322 | 0.0 | 0.0 | 0.00 | 0.00 | 0.00 | 64 | 1015.5 |
| 20260906031844 | 20 | 129 | 0.0 | 0.0 | 0.00 | 0.00 | 0.00 | 67 | 1015.4 |
| 20260906031339 | 21 | 129 | 0.0 | 0.0 | 0.00 | 0.00 | 0.00 | 69 | 1015.4 |
| 20260906030839 | 21 | 230 | 0.0 | 0.0 | 0.00 | 0.00 | 0.00 | 68 | 1015.4 |
| 20260906030335 | 21 | 230 | 0.0 | 0.0 | 0.00 | 0.00 | 0.00 | 69 | 1015.4 |
| 20260906025829 | 21 | 230 | 0.0 | 0.0 | 0.00 | 0.00 | 0.00 | 68 | 1015.3 |
| 20260906025323 | 21 | 142 | 0.0 | 0.0 | 0.00 | 0.00 | 0.00 | 67 | 1015.2 |
| 20260906024822 | 22 | 142 | 0.0 | 0.0 | 0.00 | 0.00 | 0.00 | 66 | 1015.2 |
| 20260906024321 | 22 | 142 | 0.0 | 0.0 | 0.00 | 0.00 | 0.00 | 66 | 1015.0 |
| 20260906023817 | 22 | 15 | 0.0 | 0.0 | 0.00 | 0.00 | 0.00 | 63 | 1015.1 |
| 20260906023312 | 23 | 15 | 0.0 | 0.0 | 0.00 | 0.00 | 0.00 | 63 | 1015.3 |
| 20260906022808 | 23 | 129 | 0.0 | 0.0 | 0.00 | 0.00 | 0.00 | 62 | 1015.0 |
| 20260906022306 | 23 | 322 | 0.0 | 3.2 | 0.00 | 0.00 | 0.00 | 61 | 1015.0 |
| 20260906021759 | 23 | 142 | 0.0 | 0.0 | 0.00 | 0.00 | 0.00 | 61 | 1014.7 |
| 20260906021258 | 23 | 15 | 0.0 | 0.0 | 0.00 | 0.00 | 0.00 | 60 | 1014.9 |
| 20260906020753 | 24 | 343 | 0.0 | 0.0 | 0.00 | 0.00 | 0.00 | 59 | 1014.5 |
| 20260906020252 | 24 | 341 | 0.0 | 0.0 | 0.00 | 0.00 | 0.00 | 58 | 1014.5 |
| 20260906015753 | 25 | 333 | 0.0 | 0.0 | 0.00 | 0.00 | 0.00 | 58 | 1014.7 |
| 20260906015251 | 25 | 19 | 0.0 | 0.0 | 0.00 | 0.00 | 0.00 | 57 | 1014.5 |
| 20260906014746 | 25 | 19 | 0.0 | 0.0 | 0.00 | 0.00 | 0.00 | 56 | 1014.4 |
| 20260906014241 | 25 | 342 | 3.2 | 3.2 | 0.00 | 0.00 | 0.00 | 55 | 1014.4 |
| 20260906013737 | 26 | 241 | 0.0 | 0.0 | 0.00 | 0.00 | 0.00 | 55 | 1014.5 |
| 20260906013237 | 26 | 283 | 0.0 | 3.2 | 0.00 | 0.00 | 0.00 | 55 | 1014.7 |
| 20260906012733 | 26 | 355 | 0.0 | 3.2 | 0.00 | 0.00 | 0.00 | 54 | 1014.5 |
| 20260906012228 | 26 | 214 | 0.0 | 3.2 | 0.00 | 0.00 | 0.00 | 53 | 1014.5 |
| 20260906011723 | 27 | 255 | 0.0 | 6.4 | 0.00 | 0.00 | 0.00 | 52 | 1014.5 |
| 20260906011223 | 27 | 175 | 0.0 | 4.8 | 0.00 | 0.00 | 0.00 | 51 | 1014.8 |
| 20260906010718 | 27 | 269 | 0.0 | 4.8 | 0.00 | 0.00 | 0.00 | 50 | 1014.8 |
| 20260906010214 | 27 | 174 | 4.8 | 8.0 | 0.00 | 0.00 | 0.00 | 50 | 1014.8 |
| 20260906005709 | 27 | 230 | 4.8 | 4.8 | 0.00 | 0.00 | 0.00 | 49 | 1014.5 |
| 20260906005209 | 27 | 172 | 9.7 | 9.7 | 0.00 | 0.00 | 0.00 | 49 | 1014.8 |
| 20260906004707 | 28 | 233 | 4.8 | 6.4 | 0.00 | 0.00 | 0.00 | 46 | 1014.9 |
| 20260906004203 | 28 | 215 | 3.2 | 4.8 | 0.00 | 0.00 | 0.00 | 46 | 1014.7 |
| 20260906003658 | 28 | 168 | 6.4 | 8.0 | 0.00 | 0.00 | 0.00 | 45 | 1015.1 |
| 20260906003154 | 28 | 125 | 0.0 | 8.0 | 0.00 | 0.00 | 0.00 | 42 | 1014.9 |
| 20260906002654 | 29 | 165 | 4.8 | 17.7 | 0.00 | 0.00 | 0.00 | 40 | 1015.2 |
| 20260906002148 | 29 | 122 | 0.0 | 17.7 | 0.00 | 0.00 | 0.00 | 39 | 1015.2 |
| 20260906001644 | 29 | 145 | 4.8 | 6.4 | 0.00 | 0.00 | 0.00 | 40 | 1015.1 |
| 20260906001143 | 29 | 168 | 0.0 | 9.7 | 0.00 | 0.00 | 0.00 | 40 | 1015.3 |
| 20260906000639 | 29 | 142 | 4.8 | 12.9 | 0.00 | 0.00 | 0.00 | 39 | 1015.4 |
| 20260906000135 | 30 | 184 | 9.7 | 14.5 | 0.00 | 0.00 | 0.00 | 37 | 1015.4 |
| 20260905235633 | 30 | 178 | 8.0 | 9.7 | 0.00 | 0.00 | 0.00 | 36 | 1015.2 |
| 20260905235129 | 31 | 140 | 6.4 | 8.0 | 0.00 | 0.00 | 0.00 | 35 | 1014.9 |
| 20260905234624 | 31 | 124 | 4.8 | 11.3 | 0.00 | 0.00 | 0.00 | 33 | 1014.9 |
| 20260905234119 | 31 | 136 | 4.8 | 9.7 | 0.00 | 0.00 | 0.00 | 34 | 1014.8 |
| 20260905233614 | 31 | 180 | 0.0 | 4.8 | 0.00 | 0.00 | 0.00 | 33 | 1014.4 |
| 20260905233108 | 32 | 105 | 4.8 | 9.7 | 0.00 | 0.00 | 0.00 | 32 | 1014.5 |
| 20260905232604 | 31 | 348 | 3.2 | 4.8 | 0.00 | 0.00 | 0.00 | 35 | 1014.3 |
| 20260905232100 | 31 | 152 | 3.2 | 8.0 | 0.00 | 0.00 | 0.00 | 34 | 1014.4 |
| 20260905231554 | 32 | 154 | 8.0 | 9.7 | 0.00 | 0.00 | 0.00 | 33 | 1014.3 |
| 20260905231051 | 32 | 184 | 12.9 | 12.9 | 0.00 | 0.00 | 0.00 | 32 | 1014.2 |
| 20260905230550 | 31 | 100 | 3.2 | 8.0 | 0.00 | 0.00 | 0.00 | 34 | 1014.3 |
| 20260905230049 | 31 | 138 | 0.0 | 8.0 | 0.00 | 0.00 | 0.00 | 36 | 1014.3 |
| 20260905225549 | 32 | 139 | 8.0 | 11.3 | 0.00 | 0.00 | 0.00 | 34 | 1014.2 |
| 20260905225044 | 31 | 171 | 3.2 | 4.8 | 0.00 | 0.00 | 0.00 | 36 | 1014.3 |
| 20260905224544 | 31 | 99 | 6.4 | 11.3 | 0.00 | 0.00 | 0.00 | 35 | 1014.0 |
| 20260905224043 | 31 | 148 | 4.8 | 8.0 | 0.00 | 0.00 | 0.00 | 35 | 1014.0 |
| 20260905223541 | 31 | 157 | 6.4 | 8.0 | 0.00 | 0.00 | 0.00 | 34 | 1014.3 |
| 20260905223037 | 31 | 99 | 6.4 | 12.9 | 0.00 | 0.00 | 0.00 | 33 | 1014.2 |
| 20260905222537 | 31 | 169 | 0.0 | 6.4 | 0.00 | 0.00 | 0.00 | 35 | 1014.1 |
| 20260905222032 | 32 | 163 | 4.8 | 14.5 | 0.00 | 0.00 | 0.00 | 33 | 1014.0 |
| 20260905221528 | 32 | 83 | 4.8 | 16.1 | 0.00 | 0.00 | 0.00 | 33 | 1014.1 |
| 20260905221024 | 31 | 121 | 8.0 | 9.7 | 0.00 | 0.00 | 0.00 | 33 | 1014.0 |
| 20260905220520 | 31 | 95 | 6.4 | 9.7 | 0.00 | 0.00 | 0.00 | 35 | 1014.1 |
| 20260905220016 | 31 | 102 | 8.0 | 14.5 | 0.00 | 0.00 | 0.00 | 35 | 1014.1 |
| 20260905215515 | 32 | 71 | 8.0 | 16.1 | 0.00 | 0.00 | 0.00 | 33 | 1014.0 |
| 20260905215012 | 31 | 142 | 6.4 | 11.3 | 0.00 | 0.00 | 0.00 | 33 | 1014.4 |
| 20260905214507 | 32 | 98 | 6.4 | 19.3 | 0.00 | 0.00 | 0.00 | 33 | 1014.3 |
| 20260905214008 | 32 | 134 | 6.4 | 19.3 | 0.00 | 0.00 | 0.00 | 32 | 1014.4 |
| 20260905213503 | 32 | 99 | 4.8 | 6.4 | 0.00 | 0.00 | 0.00 | 31 | 1014.5 |
| 20260905212958 | 32 | 29 | 0.0 | 6.4 | 0.00 | 0.00 | 0.00 | 32 | 1014.8 |
| 20260905212453 | 32 | 172 | 3.2 | 4.8 | 0.00 | 0.00 | 0.00 | 31 | 1014.4 |